{"data":{"norad_id":66770,"intl_designator":"2025-276DJ","name":"LILIUM-3","alt_names":[],"object_type":"PAYLOAD","status":"ACTIVE","operator":null,"country":"ROC","launch_date":"2025-11-28","launch_site_code":"AFWTR","launch_vehicle":null,"mission":null,"orbit_class":"UNKNOWN","rcs_meters":null,"size_class":null,"mass_kg":null,"dimensions":null,"purposes":[],"wikipedia_slug":null,"has_3d_model":false,"image_url":null,"decayed_at":null,"tle_current":{"epoch":"2026-05-24T15:33:42.935040Z","epoch_age_seconds":101481,"freshness":"FRESH","line1":"1 66770U 25276DJ  26144.64841360  .00001812  00000+0  88846-4 0  9996","line2":"2 66770  97.4250 218.7973 0001887  27.8493 332.2842 15.19382645 26858","mean_motion":15.19382645,"eccentricity":0.0001887,"inclination_deg":97.425,"raan_deg":218.7973,"arg_perigee_deg":27.8493,"mean_anomaly_deg":332.2842,"bstar":8.8846e-5,"rev_number":2685,"period_min":94.77533554426,"perigee_km":506.40585923457,"apogee_km":509.00457608751,"semimajor_km":6885.842217661,"source":"CELESTRAK","updated_at":"2026-05-25T13:38:06.476618Z"}}}